Location: Ermatingen
(47.6706°N, 9.0857°E)
Time: 08:31:02
(UTC+00:00)

Cosmos 1428 Rocket - Pass Details

Date: 01 December 2021
Orbit: 949 x 987 km, 82.9° (Epoch: 26 January)

Event Time Altitude Azimuth Distance (km) Brightness Sun altitude
Rises 17:27:42 0° 349° (N) 3,634 7.5 -18.4°
Reaches altitude 10° 17:30:12 10° 348° (NNW) 2,686 6.8 -18.8°
Maximum altitude 17:36:18 75° 265° (W) 991 4.6 -19.9°
Drops below altitude 10° 17:42:25 10° 181° (S) 2,684 6.9 -20.9°
Sets 17:44:55 0° 179° (S) 3,631 7.6 -21.3°
